Location: Appletree Creek
(38.7363°N, 122.6833°W)
Time: 09:08:18
(UTC+00:00)

Cosmos 2263 Rocket - Pass Details

Date: 18 September 2020
Orbit: 822 x 849 km, 71.0° (Epoch: 21 October)

Event Time Altitude Azimuth Distance (km) Brightness Sun altitude
Rises 13:08:35 0° 331° (NNW) 3,398 5.2 -9.9°
Reaches altitude 10° 13:11:05 10° 327° (NNW) 2,464 4.4 -9.4°
Maximum altitude 13:16:32 51° 253° (WSW) 1,054 2.4 -8.4°
Drops below altitude 10° 13:21:59 10° 179° (S) 2,462 4.6 -7.3°
Sets 13:24:29 0° 174° (S) 3,395 5.3 -6.8°
